Location: ?????
(32.7281°N, 34.9563°E)
Time: 11:45:16
(UTC+00:00)

Cosmos 2360 - Pass Details

Date: 29 October 2020
Orbit: 848 x 855 km, 70.8° (Epoch: 27 November)

Event Time Altitude Azimuth Distance (km) Brightness Sun altitude
Rises 16:06:30 0° 202° (SSW) 3,408 7.8 -16.2°
Reaches altitude 10° 16:08:57 10° 204° (SSW) 2,475 7.0 -16.8°
Maximum altitude 16:14:39 79° 291° (WNW) 873 4.3 -17.9°
Drops below altitude 10° 16:20:22 10° 18° (NNE) 2,486 6.4 -19.1°
Enters shadow 16:22:31 - 19° (NNE) 3,300 7.1 -19.6°
